Location: Remedello Sotto
(45.2500°N, 10.3667°E)
Time: 11:54:26
(UTC+00:00)

Spot 1 - Pass Details

Date: 03 February 2023
Orbit: 575 x 772 km, 98.8° (Epoch: 01 April)

Event Time Altitude Azimuth Distance (km) Brightness Sun altitude
Exits shadow 18:52:01 58° 317° (NW) 677 4.3 -25.5°
Maximum altitude 18:52:23 61° 288° (WNW) 656 4.3 -25.6°
Drops below altitude 10° 18:56:22 10° 208° (SSW) 1,882 6.8 -26.3°
Sets 18:58:31 0° 205° (SSW) 2,784 7.7 -26.7°
